EW2664 Weather Reports


Display with metric or nautical units.
time (UTC)temp
F
wind
direction
speed
MPH
gust
MPH
rain 1hr
in
rain 24hr
in
rain mn
in
humidity
%
barometer
mb
20260506143021 85 115 0.0 6.0 0.00 0.00 0.00 67 1017.0
20260506141511 84 111 0.0 6.0 0.00 0.00 0.00 70 1016.9
20260506140008 83 169 0.0 5.0 0.00 0.00 0.00 70 1017.0
20260506134512 83 167 1.0 5.0 0.00 0.00 0.00 71 1016.9
20260506133016 82 135 0.0 3.0 0.00 0.00 0.00 73 1016.8
20260506131521 82 159 0.0 4.0 0.00 0.00 0.00 74 1016.6
20260506130008 81 95 0.0 2.0 0.00 0.00 0.00 77 1016.7
20260506124510 79 161 0.0 2.0 0.00 0.00 0.00 79 1016.7
20260506123015 78 76 0.0 1.0 0.00 0.00 0.00 81 1016.9
20260506121520 78 92 0.0 2.0 0.00 0.00 0.00 83 1016.7
20260506120047 77 84 0.0 2.0 0.00 0.00 0.00 84 1016.8
20260506114509 76 84 0.0 2.0 0.00 0.00 0.00 86 1016.5
20260506113014 75 84 0.0 0.0 0.00 0.00 0.00 89 1016.4
20260506111519 73 84 0.0 0.0 0.00 0.00 0.00 90 1016.2
20260506110026 73 84 0.0 0.0 0.00 0.00 0.00 89 1016.1
20260506104518 73 84 0.0 0.0 0.00 0.00 0.00 89 1015.9
20260506103033 73 84 0.0 0.0 0.00 0.00 0.00 89 1015.8
20260506101516 73 84 0.0 0.0 0.00 0.00 0.00 88 1015.7
20260506100022 73 84 0.0 0.0 0.00 0.00 0.00 87 1015.6
20260506094524 73 84 0.0 0.0 0.00 0.00 0.00 87 1015.6
20260506093018 74 84 0.0 0.0 0.00 0.00 0.00 87 1015.6
20260506091518 74 84 0.0 0.0 0.00 0.00 0.00 86 1015.5
20260506090023 74 84 0.0 0.0 0.00 0.00 0.00 85 1015.4
20260506084554 75 84 0.0 0.0 0.00 0.00 0.00 85 1015.4
20260506083029 75 73 0.0 2.0 0.00 0.00 0.00 85 1015.5
20260506081517 75 73 0.0 2.0 0.00 0.00 0.00 84 1015.4
20260506073028 76 65 0.0 2.0 0.00 0.00 0.00 83 1015.2
20260506071516 76 76 0.0 2.0 0.00 0.00 0.00 83 1015.3
20260506061528 77 111 0.0 2.0 0.00 0.00 0.00 81 1015.7
20260506044521 77 96 1.0 3.0 0.00 0.00 0.00 80 1016.1
20260506043023 77 92 2.0 5.0 0.00 0.00 0.00 80 1016.1
20260506041528 77 34 2.0 8.0 0.00 0.00 0.00 80 1016.3
20260506040032 77 88 2.0 4.0 0.00 0.00 0.00 79 1016.3
20260506034532 77 78 1.0 5.0 0.00 0.00 0.00 79 1016.3
20260506033024 77 105 0.0 3.0 0.00 0.00 0.00 79 1016.2
20260506031529 77 84 1.0 4.0 0.00 0.00 0.00 79 1016.1
20260506030029 78 91 1.0 4.0 0.00 0.00 0.00 78 1016.0
20260506024531 78 47 1.0 3.0 0.00 0.00 0.00 78 1015.9
20260506023006 78 78 1.0 9.0 0.00 0.00 0.00 77 1015.6
20260506021504 78 121 1.0 5.0 0.00 0.00 0.00 77 1015.5
20260506020003 78 115 3.0 7.0 0.00 0.00 0.00 77 1015.4
20260506014505 78 116 2.0 7.0 0.00 0.00 0.00 77 1015.2
20260506013003 78 90 4.0 8.0 0.00 0.00 0.00 76 1015.1
20260506011506 78 102 2.0 9.0 0.00 0.00 0.00 76 1015.1
20260506010007 78 103 2.0 10.0 0.00 0.00 0.00 76 1015.1
20260506004511 79 63 4.0 13.0 0.00 0.00 0.00 75 1014.9
20260506003007 79 89 3.0 9.0 0.00 0.00 0.00 75 1015.0
20260506001506 79 67 1.0 8.0 0.00 0.00 0.00 75 1015.0
20260506000006 79 30 4.0 9.0 0.00 0.00 0.00 74 1014.9
20260505234508 80 230 4.0 9.0 0.00 0.00 0.00 74 1014.5
20260505233008 80 38 2.0 10.0 0.00 0.00 0.00 74 1014.4
20260505231507 80 93 3.0 10.0 0.00 0.00 0.00 73 1014.1
20260505230020 81 91 3.0 10.0 0.00 0.00 0.00 71 1014.0
20260505224510 81 105 2.0 9.0 0.00 0.00 0.00 71 1014.1
20260505223007 82 30 3.0 8.0 0.00 0.00 0.00 70 1014.0
20260505221510 82 40 3.0 9.0 0.00 0.00 0.00 69 1014.0
20260505220009 83 76 5.0 9.0 0.00 0.00 0.00 68 1014.0
20260505214512 83 96 2.0 8.0 0.00 0.00 0.00 67 1013.8
20260505213017 84 74 2.0 10.0 0.00 0.00 0.00 66 1013.5
20260505211513 84 91 2.0 9.0 0.00 0.00 0.00 67 1013.4
20260505210014 85 107 2.0 9.0 0.00 0.00 0.00 62 1013.3
20260505204512 85 94 3.0 9.0 0.00 0.00 0.00 62 1013.4
20260505203012 86 101 2.0 8.0 0.00 0.00 0.00 61 1013.3
20260505201526 86 38 4.0 10.0 0.00 0.00 0.00 59 1013.5
20260505200014 87 69 3.0 10.0 0.00 0.00 0.00 59 1013.6
20260505194512 87 135 2.0 10.0 0.00 0.00 0.00 61 1013.8
20260505193012 87 106 3.0 9.0 0.00 0.00 0.00 60 1013.8
20260505191514 88 60 2.0 8.0 0.00 0.00 0.00 60 1014.0
20260505190013 88 115 3.0 7.0 0.00 0.00 0.00 58 1014.2
20260505184514 86 92 2.0 9.0 0.00 0.00 0.00 63 1014.3
20260505183020 84 105 2.0 9.0 0.00 0.00 0.00 66 1014.3
20260505181515 85 87 4.0 11.0 0.00 0.00 0.00 65 1014.4
20260505180020 86 78 2.0 6.0 0.00 0.00 0.00 61 1014.4
20260505174524 88 170 3.0 9.0 0.00 0.00 0.00 60 1014.5
20260505173016 86 43 3.0 9.0 0.00 0.00 0.00 62 1014.4
20260505171516 87 128 1.0 10.0 0.00 0.00 0.00 64 1014.4
20260505170017 87 149 4.0 8.0 0.00 0.00 0.00 63 1014.7
20260505164516 86 336 1.0 7.0 0.00 0.00 0.00 62 1014.7
20260505163016 86 65 1.0 7.0 0.00 0.00 0.00 61 1014.9
20260505161506 88 93 2.0 4.0 0.00 0.00 0.00 59 1014.9
20260505153003 85 234 1.0 4.0 0.00 0.00 0.00 62 1014.9
20260505151506 84 104 0.0 3.0 0.00 0.00 0.00 65 1015.1